Location: Newark
(32.9167°N, 112.9667°W)
Time: 17:07:16
(UTC+00:00)

Envisat - Visible Passes

Search period start: 20 March 2019 00:00
Search period end: 30 March 2019 00:00
Orbit: 764 x 766 km, 98.2° (Epoch: 19 March)

Date Brightness Start Highest point End Pass type
(mag) Time Alt. Az. Time Alt. Az. Time Alt. Az.
20 Mar 5.3 03:08:59 10° SSW 03:13:06 25° W 03:17:15 10° NW visible
21 Mar 3.6 02:31:14 10° S 02:36:14 61° W 02:41:16 10° NNW visible
22 Mar 6.0 03:36:30 10° WSW 03:38:50 13° W 03:41:10 10° WNW visible
23 Mar 4.8 02:57:20 10° SSW 03:01:50 32° W 03:06:22 10° NW visible
24 Mar 3.2 02:19:58 10° S 02:25:01 80° WSW 02:30:07 10° NNW visible
25 Mar 5.8 03:24:14 10° SW 03:27:31 17° W 03:30:50 10° NW visible
26 Mar 4.3 02:45:48 10° S 02:50:34 42° W 02:55:23 10° NNW visible
27 Mar 3.0 02:08:45 10° SSE 02:13:49 80° ENE 02:18:54 10° N visible
28 Mar 5.4 03:12:18 10° SSW 03:16:14 22° W 03:20:11 10° NW visible
29 Mar 3.8 02:34:23 10° S 02:39:20 55° W 02:44:20 10° NNW visible
